Ogden Hill AFB, UT

4:22 PM MST on February 21, 2018 (GMT -0700)
Hill Air Force Base

Weather History for KHIF - November, 2013

Change the Weather History Date:

Friday, November 8, 2013

  Actual Average Record
Temperature  
Mean Temperature 49 °F -  
Max Temperature 56 °F 46 °F 68 °F (2006)
Min Temperature 42 °F 32 °F 21 °F (2000)
Degree Days  
Heating Degree Days 16    
Moisture  
Dew Point 28 °F    
Average Humidity 43    
Maximum Humidity 58    
Minimum Humidity 34    
Precipitation  
Precipitation 0.00 in - - ()
Sea Level Pressure  
Sea Level Pressure 29.99 in    
Wind  
Wind Speed 7 mph (South)    
Max Wind Speed 10 mph    
Max Gust Speed -    
Visibility 10 miles    
Events      
Averages and records for this station are not official NWS values.
T = Trace of Precipitation, MM = Missing Value Source: NWS Daily Summary

Daily Weather History Graph

Daily Weather History Graph

Search for Another Location

Airport or City:

Trip Planner

Search our weather history database for the weather conditions in past years. The results will help you decide how hot, cold, wet, or windy it might be!

Date:

Astronomy

Nov. 08, 2013 Rise Set
Actual Time 7:07 AM MST 5:15 PM MST
Civil Twilight 6:38 AM MST 5:44 PM MST
Nautical Twilight 6:05 AM MST 6:17 PM MST
Astronomical Twilight 5:33 AM MST 6:49 PM MST
Moon 12:06 PM MST (11/8) 10:40 PM MST (11/8)
Length of Visible Light 11h 05m
Length of Day
10h 07m
Waxing Crescent, 34% of the Moon is Illuminated
Nov 8
Waxing Crescent
Nov 9
First Quarter
Nov 17
Full
Nov 25
Last Quarter
Dec 2
New

Hourly Weather History & Observations

Time (MST) Temp. Windchill Dew Point Humidity Pressure Visibility Wind Dir Wind Speed Gust Speed Precip Events Conditions
12:58 AM 50.9 °F - 26.8 °F 39% 29.94 in 10.0 mi SSW 10.4 mph - N/A   Overcast
1:58 AM 50.2 °F - 26.2 °F 39% 29.95 in 10.0 mi South 8.1 mph - N/A   Overcast
2:58 AM 48.6 °F - 25.9 °F 41% 29.94 in 10.0 mi South 9.2 mph - N/A   Overcast
3:58 AM 48.7 °F - 25.3 °F 40% 29.96 in 10.0 mi South 6.9 mph - N/A   Overcast
4:58 AM 48.4 °F - 24.3 °F 39% 29.97 in 10.0 mi SSW 6.9 mph - N/A   Scattered Clouds
5:58 AM 45.5 °F 44.2 °F 24.1 °F 43% 29.97 in 10.0 mi South 3.5 mph - N/A   Clear
6:58 AM 48.6 °F - 23.5 °F 37% 29.99 in 10.0 mi WNW 3.5 mph - N/A   Clear
7:58 AM 49.3 °F - 24.8 °F 38% 30.01 in 10.0 mi North 2.3 mph - N/A   Mostly Cloudy
8:58 AM 52.0 °F - 24.8 °F 35% 30.03 in 10.0 mi Calm Calm - N/A   Mostly Cloudy
9:58 AM 53.1 °F - 25.5 °F 34% 30.02 in 10.0 mi SW 6.9 mph - N/A   Mostly Cloudy
10:58 AM 53.4 °F - 27.5 °F 37% 30.04 in 10.0 mi Variable 3.5 mph - N/A   Mostly Cloudy
11:58 AM 54.7 °F - 28.6 °F 37% 30.02 in 10.0 mi Variable 6.9 mph - N/A   Scattered Clouds
12:58 PM 55.6 °F - 30.2 °F 38% 30.00 in 10.0 mi West 9.2 mph - N/A   Scattered Clouds
1:58 PM 56.1 °F - 31.1 °F 39% 29.99 in 10.0 mi West 8.1 mph - N/A   Mostly Cloudy
2:58 PM 55.6 °F - 31.6 °F 40% 29.99 in 10.0 mi WNW 5.8 mph - N/A   Partly Cloudy
3:58 PM 55.4 °F - 30.4 °F 38% 29.99 in 10.0 mi NW 4.6 mph - N/A   Partly Cloudy
4:58 PM 53.8 °F - 30.6 °F 41% 29.99 in 10.0 mi North 1.2 mph - N/A   Clear
5:58 PM 50.7 °F - 30.6 °F 46% 30.00 in 10.0 mi ESE 3.5 mph - N/A   Clear
6:58 PM 50.4 °F - 30.0 °F 46% 29.99 in 10.0 mi East 5.8 mph - N/A   Clear
7:58 PM 46.6 °F - 28.8 °F 50% 30.00 in 10.0 mi East 5.8 mph - N/A   Clear
8:58 PM 46.4 °F 45.2 °F 30.6 °F 54% 29.99 in 10.0 mi East 3.5 mph - N/A   Clear
9:58 PM 43.5 °F 37.9 °F 28.4 °F 55% 30.02 in 10.0 mi ESE 10.4 mph - N/A   Clear
10:58 PM 42.1 °F 36.1 °F 28.0 °F 58% 30.02 in 10.0 mi ESE 10.4 mph - N/A   Clear
11:58 PM 42.4 °F 36.5 °F 27.5 °F 56% 30.01 in 10.0 mi ESE 10.4 mph - N/A   Clear